Wind_Speed
12 11 8 3 5 10 18 17 13 7 5 7 5 10 9 11 4 1 7 8 11 10 15 15 16 16 20 22 22 22 20 18 17 15 15 15 15 15 15 14 14 14 15 15 14 14 15 16 16
11 11 9 5 11 18 17 16 6 8 7 6 6 9 9 12 5 12 6 4 12 11 17 16 17 16 20 22 23 22 21 20 18 17 16 16 16 16 15 15 15 16 15 16 15 16 17 17 18
11 11 7 10 18 20 14 2 7 8 11 3 2 5 5 4 11 8 19 4 16 12 18 17 17 17 19 22 22 21 21 20 18 18 17 17 17 17 16 16 16 17 17 17 18 18 19 19 20
11 9 11 15 18 14 17 7 4 10 9 8 6 3 7 11 5 20 11 14 9 11 20 19 18 18 18 21 22 21 20 19 18 18 17 18 18 18 17 18 18 19 20 20 21 21 21 22 22
11 9 18 21 22 21 17 14 7 10 9 11 9 7 7 12 16 15 13 15 17 12 23 21 20 19 18 20 21 21 20 19 18 17 17 16 17 18 19 19 19 20 20 21 21 22 22 22 20
12 11 20 23 23 21 19 16 16 15 13 13 13 11 10 19 15 17 15 16 20 14 25 25 22 21 19 19 21 21 20 19 18 18 17 15 15 16 18 19 19 19 19 18 19 18 18 18 17
16 18 22 24 25 20 17 13 15 14 14 16 13 16 11 19 19 17 14 14 22 17 27 26 26 24 21 19 20 20 19 18 18 17 17 16 15 14 15 17 18 17 16 16 15 15 14 14 13
17 19 27 28 26 26 19 19 17 14 14 13 17 9 14 21 21 18 16 14 24 20 27 29 27 26 25 22 20 21 19 19 18 17 16 16 16 14 13 14 15 16 14 13 12 11 10 9 9
16 23 28 27 26 25 21 14 12 13 15 18 13 16 18 25 18 19 19 18 17 25 29 31 30 28 26 24 22 22 21 20 20 19 17 17 16 15 13 12 12 13 13 12 10 9 8 7 5
21 24 29 23 23 23 25 27 20 18 16 14 18 18 21 22 21 20 22 21 20 21 27 31 32 30 28 26 24 23 23 22 22 20 19 18 17 16 15 14 12 11 11 10 9 8 7 6 4
23 34 25 24 22 23 27 27 24 25 24 19 15 16 17 21 24 22 23 25 22 23 28 33 35 33 31 29 27 25 24 23 22 21 20 19 18 17 15 14 13 12 11 9 8 7 6 5 4
29 31 30 28 26 27 28 27 29 25 26 24 22 18 19 13 12 21 21 23 26 27 30 36 39 37 34 32 29 26 25 24 23 22 22 21 19 17 16 15 13 13 12 10 8 6 5 4 3
29 29 29 29 29 28 29 35 34 36 29 27 24 25 23 23 19 17 18 22 25 27 27 37 40 39 37 35 33 29 27 26 25 24 23 22 20 18 17 16 15 15 13 11 9 8 6 5 5
22 24 28 25 26 28 32 32 29 42 30 33 32 32 31 29 26 21 19 21 28 29 30 37 39 39 40 39 37 33 31 28 28 27 25 23 21 20 19 17 16 15 13 12 11 10 8 7 7
23 31 31 35 31 34 29 36 42 44 31 31 32 33 33 33 30 31 29 26 25 33 35 36 38 39 41 41 39 38 35 33 30 29 27 25 24 21 21 20 19 17 15 13 12 11 11 10 9
29 30 39 37 29 30 31 48 37 36 34 33 33 35 35 33 32 30 30 29 28 33 39 39 38 39 40 42 41 41 39 37 34 32 30 28 27 24 23 23 21 20 18 16 15 14 13 12 12
25 33 35 38 29 28 29 41 32 28 32 32 33 32 35 34 35 35 33 28 30 34 42 44 42 40 39 42 42 43 42 40 37 36 33 31 29 27 26 25 24 22 21 19 18 16 15 15 14
25 28 30 33 29 28 36 44 38 32 31 32 28 26 35 33 31 31 33 34 32 34 39 46 46 44 41 42 44 44 44 41 40 38 36 34 32 31 29 28 26 25 23 21 20 19 18 16 15
23 26 31 33 33 31 35 39 39 36 36 34 30 31 32 33 30 37 30 36 36 36 37 49 48 47 46 45 47 46 41 39 38 38 38 36 34 34 32 31 29 27 26 24 21 21 20 20 18
18 23 28 31 29 30 35 41 43 40 40 40 40 34 33 32 32 28 32 33 36 39 41 48 51 49 48 47 44 42 41 40 38 39 40 38 38 37 35 34 32 30 29 27 25 23 22 23 22
21 24 26 28 29 32 33 42 43 41 39 40 40 40 40 36 34 34 35 30 34 37 44 49 48 51 49 48 44 45 47 45 44 43 42 38 37 40 38 36 36 33 32 30 27 25 25 24 24
23 21 24 27 28 31 25 29 36 34 34 34 38 44 46 43 42 39 34 34 33 35 43 50 48 49 51 49 48 49 48 46 42 39 38 36 40 42 41 40 39 38 35 34 30 28 27 26 27
19 18 22 26 30 31 31 27 31 28 33 37 38 34 37 39 43 43 42 35 35 34 40 48 50 46 49 53 51 49 47 45 42 41 39 40 43 44 45 43 42 42 38 37 34 32 30 29 29
19 19 23 29 31 22 31 31 35 33 32 31 30 32 37 34 31 39 43 40 36 35 39 44 49 47 49 53 53 50 47 44 45 42 40 41 43 43 43 43 42 42 41 39 37 34 33 32 31
16 17 12 17 10 12 22 23 25 16 16 19 22 21 25 33 35 29 33 39 39 39 39 40 46 47 48 54 54 52 48 45 44 42 42 42 41 42 40 41 41 41 41 40 39 38 36 35 35
19 19 10 8 11 18 24 16 8 12 13 10 8 18 20 19 18 27 33 29 38 39 41 42 42 48 49 50 55 52 49 48 45 44 44 43 42 40 39 37 39 39 40 41 42 40 38 37 37
16 21 20 20 24 18 21 16 12 16 21 21 19 20 18 22 24 19 24 29 32 38 41 42 44 47 47 48 53 54 52 50 46 45 44 44 44 40 37 36 36 37 38 40 42 42 40 39 38
12 17 14 6 6 9 17 17 12 18 25 29 29 26 23 24 23 23 21 28 30 34 41 43 46 46 49 46 49 53 55 51 46 42 41 40 39 38 37 36 34 34 34 36 38 39 40 40 40
19 17 6 9 11 6 8 14 23 17 33 31 30 31 26 32 30 27 24 26 31 33 36 45 45 48 53 49 48 51 57 54 50 46 44 41 38 38 37 34 32 32 33 34 36 36 36 37 37
20 6 8 7 14 22 22 27 17 31 33 29 31 30 28 23 16 20 23 15 30 28 32 35 42 49 54 54 50 51 56 57 55 51 48 46 44 43 40 39 39 38 37 36 37 37 37 36 36
Wind_Direction
263 267 266 240 237 244 253 244 226 266 247 207 208 201 217 219 218 194 175 232 221 197 178 161 146 136 123 118 115 112 109 104 102 103 102 104 104 105 105 104 105 104 104 104 102 100 101 96 97
253 265 272 212 242 245 251 233 247 237 204 206 227 221 234 225 238 233 194 194 187 188 180 167 151 143 128 122 119 117 113 105 103 105 108 108 107 107 106 107 106 105 103 101 101 103 103 102 100
249 252 247 255 245 249 262 200 242 231 240 227 203 236 226 243 223 230 215 196 182 178 181 170 159 151 137 128 123 122 119 113 107 106 106 108 109 109 109 110 107 105 101 98 100 104 105 105 100
250 261 249 238 245 247 253 320 230 233 248 232 214 262 234 226 209 208 203 225 202 201 190 176 167 157 148 135 129 127 125 121 115 111 108 111 112 113 113 110 108 105 101 100 101 103 104 99 96
239 223 247 250 253 253 251 254 249 249 232 239 232 247 227 290 234 216 202 223 214 212 190 182 173 163 158 145 137 135 135 131 126 122 116 113 113 115 114 112 110 107 106 106 105 104 102 98 95
233 238 246 250 253 256 258 254 256 257 245 239 253 263 265 246 230 220 215 220 208 211 192 182 180 169 165 159 148 145 147 144 137 133 131 126 122 120 119 116 113 112 113 110 108 104 101 99 94
234 237 251 254 258 257 254 261 260 260 247 239 251 255 253 272 223 223 222 217 200 207 192 188 184 176 172 171 163 157 158 157 151 146 144 141 139 136 132 126 125 124 121 119 115 111 108 103 99
237 246 251 253 256 259 258 262 266 257 247 253 241 228 235 249 221 226 226 210 203 195 193 193 191 184 180 177 176 170 170 167 168 164 161 156 154 153 150 144 141 139 137 134 130 125 118 111 106
246 245 249 249 255 262 258 271 268 253 246 233 237 237 242 232 234 239 233 219 213 205 196 198 197 193 189 185 185 182 179 180 178 179 179 175 172 165 159 158 157 154 154 152 149 144 136 128 118
236 246 250 255 257 263 261 258 255 253 263 251 232 250 251 251 247 240 232 222 224 213 204 204 202 200 198 194 192 193 189 190 190 187 189 188 186 185 180 174 168 167 166 165 164 161 157 154 147
246 250 258 257 256 264 260 259 257 258 250 238 238 244 264 256 244 240 232 228 225 215 211 208 205 206 204 203 200 201 202 198 198 196 194 197 194 195 194 191 186 182 179 176 176 173 174 177 178
254 257 260 263 264 258 258 267 259 253 252 245 242 247 237 246 251 243 230 223 227 220 217 210 207 207 208 209 208 207 208 209 204 203 201 200 203 201 199 198 194 196 194 192 188 190 190 200 219
251 262 264 262 261 259 260 255 261 257 253 251 245 241 239 243 250 246 231 223 225 227 220 215 211 209 209 212 213 215 213 213 213 208 209 207 206 208 205 204 203 202 203 201 202 203 208 212 229
261 263 263 262 259 257 255 259 263 254 258 256 252 249 248 247 245 235 236 225 227 227 218 214 212 212 213 215 216 219 219 217 218 216 212 214 212 209 212 209 211 212 209 208 208 212 214 220 231
269 270 272 266 267 265 263 262 250 260 264 257 251 255 250 247 246 240 237 234 235 230 225 217 216 217 218 219 219 222 221 223 221 223 218 216 217 215 214 215 215 215 216 215 216 217 218 222 230
272 273 270 267 265 264 254 259 258 264 264 262 258 250 252 248 242 241 239 236 228 230 228 226 223 224 222 222 224 226 227 225 225 225 225 219 219 218 221 220 219 218 218 219 219 218 221 226 234
266 262 268 271 260 260 245 260 261 259 260 263 258 250 249 251 245 238 233 230 229 229 230 230 229 229 227 225 226 227 230 229 227 228 227 223 221 221 222 225 225 225 222 222 223 224 224 227 234
280 278 272 270 268 261 255 258 261 256 255 255 256 252 243 241 240 236 238 235 228 229 232 229 231 230 231 230 228 228 231 231 230 230 229 226 223 225 223 227 228 229 229 226 228 223 226 233 235
276 275 272 269 267 270 262 261 258 254 254 252 252 250 247 244 246 246 237 236 231 228 229 233 229 228 230 229 229 230 230 234 233 234 229 226 225 225 225 227 232 230 233 232 232 233 229 232 236
274 275 273 275 273 270 268 266 263 258 255 254 252 249 246 243 236 231 232 231 227 223 229 235 229 230 230 231 230 231 234 235 236 235 233 224 222 225 226 228 230 233 235 236 234 236 236 234 236
277 274 279 279 280 273 273 271 267 262 257 251 248 248 244 241 238 233 233 236 229 222 228 233 233 230 230 230 230 229 234 234 235 234 231 227 223 226 225 227 232 232 236 238 239 238 241 241 243
280 278 281 282 279 274 271 280 269 268 261 254 254 250 247 242 242 236 231 231 238 223 228 233 234 232 227 228 228 228 229 230 229 227 227 226 225 226 227 226 229 233 231 239 238 239 240 243 246
284 285 278 276 275 279 271 266 270 269 263 259 256 249 252 251 243 243 239 230 227 235 229 234 234 234 227 226 226 227 229 231 231 229 225 222 225 227 228 227 227 234 233 235 241 241 241 243 247
273 285 286 276 261 257 263 261 271 269 268 265 261 256 245 244 247 246 240 234 229 227 235 239 233 233 226 223 224 226 227 229 230 225 224 223 226 230 231 231 231 233 236 234 240 243 243 245 246
288 306 301 289 238 243 268 261 263 290 306 276 265 264 259 251 242 243 242 235 225 221 231 238 230 225 228 222 223 225 226 227 230 227 224 225 227 233 234 235 235 235 237 237 237 243 244 243 249
296 301 285 299 319 309 303 272 7 18 348 335 319 254 259 253 233 247 243 236 233 221 219 238 238 222 227 224 221 222 226 227 230 230 226 226 227 230 239 238 238 239 238 239 240 241 245 247 246
296 295 301 293 289 274 277 282 305 349 357 341 313 311 251 240 235 224 234 241 228 228 221 219 240 233 223 225 222 223 225 226 227 229 227 228 228 226 231 235 235 237 239 240 241 242 243 247 249
277 299 305 278 285 300 290 308 337 350 346 346 342 321 274 256 253 242 210 225 234 223 221 221 224 237 221 225 224 223 225 226 226 224 224 225 222 224 224 230 232 235 235 238 240 242 243 245 246
303 295 301 309 277 301 320 312 337 353 341 337 331 327 303 283 276 259 223 224 214 224 221 220 225 229 228 220 224 223 224 224 223 222 222 221 221 220 224 227 230 232 237 238 240 240 242 243 244
277 273 8 347 327 311 292 293 310 333 333 332 326 320 310 296 275 257 227 246 227 214 224 219 225 226 230 225 224 221 224 224 224 224 224 224 226 228 229 232 234 235 235 238 241 241 241 241 242
Height
3152 3153 3154 3157 3166 3159 3154 3153 3153 3155 3155 3154 3155 3158 3161 3161 3164 3166 3163 3164 3165 3167 3170 3171 3171 3172 3170 3170 3172 3174 3175 3176 3177 3178 3180 3180 3181 3182 3183 3184 3184 3185 3186 3186 3187 3187 3188 3188 3189
3151 3153 3155 3158 3160 3153 3148 3148 3152 3154 3153 3152 3153 3154 3157 3160 3163 3161 3163 3163 3164 3166 3169 3171 3171 3173 3172 3171 3173 3175 3176 3178 3180 3181 3182 3183 3184 3185 3185 3187 3188 3188 3189 3189 3189 3190 3191 3191 3192
3150 3152 3156 3158 3155 3152 3148 3149 3152 3154 3152 3154 3156 3156 3158 3161 3161 3163 3160 3162 3163 3166 3169 3171 3173 3174 3173 3173 3174 3176 3177 3179 3182 3183 3184 3185 3185 3187 3188 3189 3190 3191 3191 3192 3192 3193 3194 3195 3196
3149 3152 3154 3153 3151 3150 3150 3150 3150 3152 3152 3152 3155 3157 3159 3156 3157 3156 3159 3161 3163 3165 3168 3170 3173 3174 3176 3174 3175 3177 3179 3181 3183 3185 3186 3188 3188 3189 3191 3191 3192 3193 3194 3195 3196 3196 3198 3198 3199
3147 3151 3152 3149 3147 3149 3149 3150 3150 3151 3152 3152 3154 3156 3157 3155 3153 3154 3156 3158 3161 3163 3165 3169 3172 3174 3176 3176 3176 3178 3180 3182 3184 3186 3188 3190 3191 3191 3192 3193 3194 3195 3197 3198 3199 3200 3200 3200 3202
3147 3149 3148 3145 3144 3146 3148 3148 3148 3149 3150 3152 3153 3155 3156 3152 3152 3152 3154 3155 3158 3160 3164 3166 3170 3173 3176 3177 3177 3179 3181 3183 3185 3187 3189 3191 3193 3194 3194 3195 3196 3198 3199 3201 3202 3202 3203 3204 3204
3142 3146 3143 3143 3142 3143 3146 3146 3145 3146 3148 3150 3152 3153 3155 3149 3149 3150 3152 3153 3155 3157 3162 3165 3168 3171 3175 3178 3178 3179 3181 3184 3186 3188 3190 3192 3194 3196 3197 3197 3198 3200 3201 3203 3204 3205 3205 3206 3206
3138 3142 3139 3139 3141 3140 3144 3143 3143 3143 3146 3148 3149 3151 3153 3144 3146 3148 3149 3151 3153 3155 3159 3163 3166 3169 3172 3175 3178 3179 3182 3184 3187 3189 3191 3192 3194 3196 3198 3199 3199 3201 3203 3204 3205 3206 3206 3207 3208
3138 3136 3132 3135 3138 3139 3140 3139 3142 3141 3142 3144 3146 3147 3142 3142 3145 3146 3147 3148 3151 3153 3155 3159 3164 3167 3170 3174 3177 3179 3181 3184 3185 3188 3191 3192 3194 3196 3198 3200 3201 3202 3203 3204 3206 3206 3207 3208 3209
3132 3130 3127 3134 3134 3134 3135 3136 3137 3139 3141 3141 3143 3142 3140 3141 3143 3144 3145 3146 3148 3151 3154 3157 3161 3165 3168 3171 3175 3177 3179 3182 3184 3187 3190 3192 3194 3196 3198 3200 3201 3202 3204 3205 3206 3207 3207 3208 3209
3127 3119 3126 3129 3130 3130 3130 3129 3132 3133 3134 3139 3141 3142 3139 3137 3139 3140 3141 3142 3144 3146 3149 3153 3157 3162 3165 3169 3172 3175 3178 3180 3183 3186 3188 3191 3193 3195 3197 3199 3201 3203 3204 3205 3207 3207 3208 3209 3209
3120 3119 3121 3124 3125 3124 3124 3124 3122 3126 3129 3134 3136 3138 3137 3136 3137 3137 3138 3140 3139 3140 3144 3148 3152 3157 3162 3166 3169 3172 3175 3179 3181 3184 3187 3189 3192 3194 3196 3198 3200 3202 3203 3205 3206 3208 3209 3209 3210
3114 3115 3115 3116 3117 3117 3117 3115 3115 3114 3122 3126 3128 3129 3130 3132 3132 3135 3134 3137 3137 3136 3138 3143 3147 3152 3157 3161 3165 3169 3172 3175 3179 3181 3184 3187 3190 3193 3195 3197 3199 3200 3202 3204 3205 3207 3208 3209 3210
3107 3106 3104 3104 3105 3107 3108 3108 3112 3100 3116 3117 3119 3120 3122 3124 3127 3130 3131 3132 3132 3133 3134 3137 3141 3147 3152 3156 3161 3164 3168 3172 3175 3178 3181 3185 3188 3191 3193 3195 3197 3198 3200 3202 3204 3206 3207 3208 3209
3099 3095 3094 3094 3097 3097 3103 3099 3097 3094 3107 3107 3109 3112 3113 3115 3120 3122 3125 3128 3130 3129 3130 3132 3137 3141 3146 3150 3156 3160 3164 3168 3171 3175 3178 3182 3186 3189 3191 3193 3195 3196 3198 3200 3202 3204 3206 3207 3207
3092 3092 3087 3086 3091 3091 3096 3078 3092 3096 3095 3098 3099 3103 3105 3106 3111 3116 3119 3123 3127 3125 3124 3128 3132 3135 3141 3145 3150 3154 3158 3162 3167 3170 3174 3178 3181 3185 3188 3190 3192 3194 3195 3197 3199 3202 3204 3205 3206
3087 3082 3080 3079 3085 3085 3086 3076 3086 3089 3087 3089 3091 3094 3098 3100 3102 3106 3111 3116 3120 3120 3119 3120 3125 3129 3135 3139 3144 3149 3153 3157 3161 3165 3169 3174 3177 3181 3184 3187 3189 3191 3193 3195 3197 3200 3202 3203 3204
3078 3075 3072 3071 3077 3078 3075 3070 3077 3079 3080 3081 3083 3085 3089 3092 3095 3100 3104 3107 3113 3115 3113 3114 3117 3123 3128 3134 3138 3141 3146 3151 3155 3159 3163 3168 3172 3176 3179 3183 3185 3188 3190 3192 3194 3197 3199 3201 3202
3078 3076 3071 3069 3071 3072 3067 3063 3065 3070 3072 3072 3073 3077 3080 3082 3088 3090 3095 3099 3104 3108 3108 3105 3109 3115 3119 3124 3129 3134 3140 3145 3150 3153 3156 3162 3167 3170 3174 3177 3181 3184 3186 3189 3192 3194 3196 3198 3200
3075 3072 3067 3064 3065 3065 3059 3054 3056 3061 3061 3063 3065 3067 3071 3074 3079 3083 3087 3089 3093 3098 3100 3098 3101 3107 3112 3118 3125 3131 3136 3139 3144 3147 3150 3154 3160 3163 3169 3172 3175 3179 3182 3185 3188 3191 3194 3195 3197
3071 3068 3064 3061 3059 3056 3054 3046 3047 3048 3050 3052 3052 3054 3058 3063 3067 3072 3077 3082 3083 3087 3091 3090 3093 3098 3105 3112 3118 3123 3127 3131 3133 3137 3142 3148 3154 3157 3162 3167 3170 3174 3177 3180 3183 3187 3189 3192 3193
3066 3066 3062 3058 3056 3049 3050 3035 3036 3038 3038 3040 3041 3042 3045 3050 3055 3058 3064 3072 3076 3078 3081 3082 3086 3090 3097 3104 3107 3112 3117 3121 3128 3133 3138 3143 3147 3150 3155 3160 3164 3167 3171 3174 3178 3182 3185 3187 3189
3065 3062 3059 3055 3051 3047 3043 3038 3030 3032 3030 3033 3033 3035 3037 3039 3043 3046 3052 3058 3067 3071 3071 3072 3078 3083 3088 3094 3099 3106 3111 3118 3123 3125 3131 3135 3139 3143 3146 3151 3157 3160 3164 3168 3172 3175 3179 3182 3184
3061 3058 3053 3047 3042 3039 3035 3033 3025 3025 3023 3023 3024 3026 3030 3032 3035 3036 3040 3048 3056 3062 3062 3063 3069 3074 3079 3083 3091 3098 3104 3111 3113 3118 3123 3128 3132 3136 3140 3145 3149 3153 3157 3162 3165 3169 3172 3176 3179
3057 3054 3047 3037 3030 3027 3024 3020 3016 3017 3015 3015 3016 3017 3020 3022 3025 3027 3032 3037 3043 3050 3054 3054 3059 3065 3070 3075 3083 3090 3097 3103 3107 3112 3116 3121 3126 3129 3133 3138 3143 3146 3151 3155 3158 3161 3165 3169 3171
3055 3053 3050 3039 3031 3026 3020 3014 3014 3011 3009 3007 3007 3006 3004 3004 3008 3018 3022 3027 3034 3039 3045 3047 3050 3055 3061 3066 3074 3082 3089 3094 3100 3104 3108 3113 3118 3124 3127 3132 3136 3140 3144 3148 3151 3154 3157 3161 3164
3055 3051 3049 3043 3036 3028 3015 3009 3008 3007 3011 3006 3005 3002 3000 2999 3000 3000 3008 3016 3021 3029 3034 3040 3040 3046 3052 3058 3065 3073 3081 3086 3091 3096 3101 3105 3110 3116 3121 3125 3129 3133 3136 3140 3143 3146 3150 3153 3156
3053 3052 3047 3041 3035 3025 3011 3010 3010 3010 3009 3007 3000 2997 2994 2995 2995 2994 2991 3000 3011 3017 3024 3030 3034 3036 3043 3050 3056 3064 3073 3078 3084 3089 3092 3097 3103 3108 3113 3117 3122 3125 3129 3132 3136 3139 3142 3145 3147
3051 3049 3046 3044 3040 3029 3020 3011 3012 3008 3009 3004 3001 2996 2991 2987 2988 2990 2989 2991 2995 3006 3013 3019 3023 3029 3032 3040 3046 3054 3062 3069 3075 3081 3086 3091 3097 3101 3105 3111 3115 3118 3121 3125 3128 3131 3134 3137 3140
3048 3046 3044 3044 3040 3038 3032 3016 3014 3010 3008 3004 3000 2993 2986 2982 2981 2981 2982 2984 2987 2993 3003 3009 3014 3018 3022 3030 3037 3043 3052 3059 3066 3072 3077 3084 3088 3093 3098 3102 3106 3110 3114 3117 3120 3124 3127 3129 3132